TimeEST,TemperatureF,Dew PointF,Humidity,Sea Level PressureIn,VisibilityMPH,Wind Direction,Wind SpeedMPH,Gust SpeedMPH,PrecipitationIn,Events,Conditions,WindDirDegrees,DateUTC
12:15 AM,30.2,21.2,69,29.98,10.0,SSW,3.5,-,N/A,,Clear,200,2013-02-15 05:15:00
12:35 AM,30.2,21.2,69,29.97,10.0,SSW,3.5,-,N/A,,Scattered Clouds,210,2013-02-15 05:35:00
12:55 AM,30.2,21.2,69,29.97,10.0,SSW,3.5,-,N/A,,Mostly Cloudy,200,2013-02-15 05:55:00
1:15 AM,30.2,23.0,75,29.97,10.0,SW,4.6,-,N/A,,Mostly Cloudy,230,2013-02-15 06:15:00
1:35 AM,26.6,21.2,80,29.98,10.0,SSW,3.5,-,N/A,,Scattered Clouds,200,2013-02-15 06:35:00
1:55 AM,28.4,21.2,74,29.98,10.0,SW,3.5,-,N/A,,Scattered Clouds,220,2013-02-15 06:55:00
2:15 AM,28.4,23.0,80,29.98,10.0,SW,3.5,-,N/A,,Scattered Clouds,220,2013-02-15 07:15:00
2:35 AM,28.4,23.0,80,29.99,10.0,SW,4.6,-,N/A,,Clear,220,2013-02-15 07:35:00
2:55 AM,28.4,23.0,80,29.99,10.0,SW,3.5,-,N/A,,Clear,220,2013-02-15 07:55:00
3:15 AM,30.2,23.0,75,29.99,10.0,Calm,Calm,-,N/A,,Scattered Clouds,0,2013-02-15 08:15:00
3:35 AM,28.4,23.0,80,29.99,10.0,Calm,Calm,-,N/A,,Mostly Cloudy,0,2013-02-15 08:35:00
3:55 AM,30.2,23.0,75,29.98,10.0,Calm,Calm,-,N/A,,Mostly Cloudy,0,2013-02-15 08:55:00
4:15 AM,28.4,23.0,80,29.98,10.0,SW,3.5,-,N/A,,Scattered Clouds,230,2013-02-15 09:15:00
4:35 AM,28.4,23.0,80,29.99,10.0,WSW,3.5,-,N/A,,Clear,240,2013-02-15 09:35:00
4:55 AM,28.4,23.0,80,29.98,10.0,Calm,Calm,-,N/A,,Clear,0,2013-02-15 09:55:00
5:15 AM,28.4,23.0,80,29.99,10.0,SW,3.5,-,N/A,,Clear,230,2013-02-15 10:15:00
5:35 AM,28.4,23.0,80,29.99,10.0,SSW,3.5,-,N/A,,Clear,210,2013-02-15 10:35:00
5:55 AM,26.6,23.0,86,30.00,10.0,Calm,Calm,-,N/A,,Clear,0,2013-02-15 10:55:00
6:15 AM,28.4,23.0,80,30.00,10.0,Calm,Calm,-,N/A,,Clear,0,2013-02-15 11:15:00
6:35 AM,23.0,21.2,93,30.00,10.0,Calm,Calm,-,N/A,,Clear,0,2013-02-15 11:35:00
6:55 AM,23.0,21.2,93,30.00,10.0,Calm,Calm,-,N/A,,Clear,0,2013-02-15 11:55:00
7:15 AM,24.8,21.2,86,30.00,10.0,NNE,3.5,-,N/A,,Clear,20,2013-02-15 12:15:00
7:35 AM,23.0,19.4,86,30.01,10.0,Calm,Calm,-,N/A,,Clear,0,2013-02-15 12:35:00
7:55 AM,23.0,21.2,93,30.02,10.0,Calm,Calm,-,N/A,,Clear,0,2013-02-15 12:55:00
8:15 AM,26.6,23.0,86,30.02,10.0,Calm,Calm,-,N/A,,Clear,0,2013-02-15 13:15:00
8:35 AM,28.4,23.0,80,30.03,10.0,Calm,Calm,-,N/A,,Clear,0,2013-02-15 13:35:00
8:55 AM,30.2,24.8,80,30.03,10.0,NNE,3.5,-,N/A,,Clear,20,2013-02-15 13:55:00
9:15 AM,32.0,26.6,80,30.02,10.0,North,4.6,-,N/A,,Clear,10,2013-02-15 14:15:00
9:35 AM,32.0,28.4,87,30.02,10.0,Calm,Calm,-,N/A,,Clear,0,2013-02-15 14:35:00
9:55 AM,35.6,28.4,75,30.01,10.0,Calm,Calm,-,N/A,,Clear,0,2013-02-15 14:55:00
10:15 AM,35.6,28.4,75,30.00,10.0,SW,4.6,-,N/A,,Clear,220,2013-02-15 15:15:00
10:35 AM,37.4,28.4,70,30.00,10.0,SW,6.9,-,N/A,,Clear,220,2013-02-15 15:35:00
10:55 AM,39.2,28.4,65,29.99,10.0,SSW,5.8,-,N/A,,Clear,200,2013-02-15 15:55:00
11:15 AM,41.0,28.4,61,29.99,10.0,SW,9.2,-,N/A,,Clear,230,2013-02-15 16:15:00
11:35 AM,42.8,28.4,57,29.98,10.0,SW,5.8,-,N/A,,Clear,230,2013-02-15 16:35:00
11:55 AM,42.8,28.4,57,29.97,10.0,SSW,8.1,-,N/A,,Clear,210,2013-02-15 16:55:00
12:15 PM,44.6,28.4,53,29.96,10.0,WSW,10.4,17.3,N/A,,Clear,250,2013-02-15 17:15:00
12:35 PM,46.4,28.4,50,29.95,10.0,SW,9.2,-,N/A,,Scattered Clouds,230,2013-02-15 17:35:00
1:15 PM,44.6,26.6,49,29.93,10.0,WSW,13.8,-,N/A,,Overcast,240,2013-02-15 18:15:00
1:35 PM,44.6,26.6,49,29.92,10.0,West,6.9,-,N/A,,Mostly Cloudy,270,2013-02-15 18:35:00
1:55 PM,46.4,24.8,43,29.91,10.0,West,11.5,-,N/A,,Overcast,280,2013-02-15 18:55:00
2:15 PM,46.4,24.8,43,29.90,10.0,WSW,9.2,16.1,N/A,,Scattered Clouds,240,2013-02-15 19:15:00
2:35 PM,46.4,28.4,50,29.89,10.0,NW,9.2,16.1,N/A,,Scattered Clouds,320,2013-02-15 19:35:00
2:55 PM,44.6,28.4,53,29.89,10.0,NW,10.4,16.1,N/A,,Mostly Cloudy,310,2013-02-15 19:55:00
3:15 PM,42.8,28.4,57,29.90,10.0,WNW,11.5,-,N/A,,Overcast,300,2013-02-15 20:15:00
3:35 PM,37.4,28.4,70,29.91,10.0,WNW,11.5,17.3,N/A,,Overcast,300,2013-02-15 20:35:00
3:55 PM,35.6,28.4,75,29.93,10.0,West,13.8,21.9,N/A,,Overcast,280,2013-02-15 20:55:00
4:15 PM,32.0,28.4,87,29.95,5.0,West,10.4,20.7,N/A,Snow,Light Snow,280,2013-02-15 21:15:00
4:35 PM,32.0,28.4,87,29.96,3.0,WNW,5.8,-,N/A,Snow,Light Snow,300,2013-02-15 21:35:00
4:55 PM,32.0,30.2,93,29.97,4.0,Calm,Calm,-,N/A,Snow,Light Snow,0,2013-02-15 21:55:00
5:15 PM,32.0,28.4,87,29.98,5.0,Calm,Calm,-,N/A,Snow,Light Snow,0,2013-02-15 22:15:00
5:35 PM,32.0,30.2,93,29.97,10.0,Calm,Calm,-,N/A,,Overcast,0,2013-02-15 22:35:00
6:15 PM,32.0,28.4,87,29.98,4.0,WSW,9.2,-,N/A,Snow,Light Snow,240,2013-02-15 23:15:00
6:35 PM,32.0,28.4,87,29.99,7.0,West,6.9,-,N/A,Snow,Light Snow,260,2013-02-15 23:35:00
6:55 PM,32.0,28.4,87,30.00,10.0,West,6.9,-,N/A,,Overcast,270,2013-02-15 23:55:00
7:15 PM,30.2,28.4,93,30.00,10.0,West,4.6,-,N/A,,Overcast,260,2013-02-16 00:15:00
7:35 PM,30.2,28.4,93,30.00,10.0,West,5.8,-,N/A,,Overcast,280,2013-02-16 00:35:00
7:55 PM,30.2,28.4,93,30.01,10.0,West,6.9,-,N/A,,Overcast,270,2013-02-16 00:55:00
8:15 PM,30.2,26.6,86,30.01,10.0,West,5.8,-,N/A,,Overcast,280,2013-02-16 01:15:00
8:35 PM,30.2,26.6,86,30.01,10.0,West,4.6,-,N/A,Snow,Light Snow,270,2013-02-16 01:35:00
8:55 PM,30.2,26.6,86,30.02,10.0,West,5.8,-,N/A,,Overcast,270,2013-02-16 01:55:00
9:15 PM,30.2,26.6,86,30.01,10.0,Calm,Calm,-,N/A,Snow,Light Snow,0,2013-02-16 02:15:00
9:35 PM,30.2,26.6,86,30.02,10.0,West,4.6,-,N/A,,Overcast,270,2013-02-16 02:35:00
9:55 PM,30.2,26.6,86,30.02,10.0,West,6.9,-,N/A,,Overcast,270,2013-02-16 02:55:00
10:15 PM,30.2,24.8,80,30.01,10.0,WNW,3.5,-,N/A,,Overcast,300,2013-02-16 03:15:00
10:35 PM,30.2,23.0,75,30.00,10.0,WNW,4.6,-,N/A,,Scattered Clouds,300,2013-02-16 03:35:00
10:55 PM,30.2,23.0,75,30.00,10.0,WNW,8.1,-,N/A,,Mostly Cloudy,290,2013-02-16 03:55:00
11:15 PM,30.2,23.0,75,29.99,10.0,WNW,5.8,-,N/A,,Overcast,290,2013-02-16 04:15:00
11:35 PM,30.2,23.0,75,29.99,10.0,WNW,5.8,-,N/A,,Mostly Cloudy,290,2013-02-16 04:35:00
11:55 PM,30.2,23.0,75,29.98,10.0,WNW,9.2,-,N/A,,Scattered Clouds,290,2013-02-16 04:55:00